Port Isabel, TX

6:31 PM CST on November 18, 2017 (GMT -0600)
Port Isabel-Cameron County

Weather History for KPIL - January, 2012

Change the Weather History Date:

Wednesday, January 18, 2012

  Actual Average (KBRO) Record (KBRO)
Temperature  
Mean Temperature 65 °F -  
Max Temperature 70 °F 70 °F 87 °F (1971)
Min Temperature 60 °F 52 °F 24 °F (1930)
Growing Degree Days 15 (Base 50)    
Moisture  
Dew Point 57 °F    
Average Humidity 80    
Maximum Humidity 94    
Minimum Humidity 70    
Precipitation  
Precipitation 0.00 in - - ()
Sea Level Pressure  
Sea Level Pressure 30.16 in    
Wind  
Wind Speed 9 mph (North)    
Max Wind Speed 22 mph    
Max Gust Speed 30 mph    
Visibility 8 miles    
Events Rain    
Averages and records for this station are not official NWS values.
T = Trace of Precipitation, MM = Missing Value Source: NWS Daily Summary

Daily Weather History Graph

Daily Weather History Graph

Search for Another Location

Airport or City:

Trip Planner

Search our weather history database for the weather conditions in past years. The results will help you decide how hot, cold, wet, or windy it might be!

Date:

Astronomy

Jan. 18, 2012 Rise Set
Actual Time 7:18 AM CST 6:01 PM CST
Civil Twilight 6:53 AM CST 6:26 PM CST
Nautical Twilight 6:25 AM CST 6:54 PM CST
Astronomical Twilight 5:57 AM CST 7:22 PM CST
Moon 2:47 AM CST (1/18) 1:45 PM CST (1/18)
Length of Visible Light 11h 32m
Length of Day
10h 43m
Waning Crescent, 24% of the Moon is Illuminated
Jan 18
Waning Crescent
Jan 23
New
Jan 30
First Quarter
Feb 7
Full
Feb 14
Last Quarter

Hourly Weather History & Observations

Time (CST) Temp. Dew Point Humidity Pressure Visibility Wind Dir Wind Speed Gust Speed Precip Events Conditions
12:01 AM 69.8 °F 66.2 °F 88% 30.12 in 5.0 mi NNE 4.6 mph - N/A   Overcast
12:28 AM 69.8 °F 66.2 °F 88% 30.11 in 5.0 mi NNE 3.5 mph - N/A   Overcast
12:53 AM 70.0 °F 68.0 °F 93% 30.12 in 4.0 mi NE 3.5 mph - N/A   Overcast
1:11 AM 69.8 °F 68.0 °F 94% 30.12 in 4.0 mi NE 3.5 mph - N/A   Overcast
1:31 AM 69.8 °F 68.0 °F 94% 30.12 in 4.0 mi NNE 8.1 mph - N/A   Overcast
1:53 AM 70.0 °F 68.0 °F 93% 30.12 in 5.0 mi NNE 4.6 mph - N/A   Overcast
2:17 AM 66.2 °F 64.4 °F 94% 30.13 in 6.0 mi North 17.3 mph - N/A   Overcast
2:42 AM 64.4 °F 60.8 °F 88% 30.14 in 7.0 mi North 18.4 mph 26.5 mph 0.00 in Rain Light Rain
2:53 AM 64.0 °F 59.0 °F 84% 30.14 in 8.0 mi North 16.1 mph 25.3 mph 0.00 in Rain Light Rain
3:06 AM 62.6 °F 57.2 °F 82% 30.15 in 9.0 mi NNE 19.6 mph 28.8 mph 0.00 in   Overcast
3:53 AM 62.1 °F 54.0 °F 75% 30.15 in 9.0 mi North 21.9 mph 27.6 mph 0.00 in   Overcast
4:53 AM 61.0 °F 53.1 °F 75% 30.17 in 8.0 mi NNE 18.4 mph 28.8 mph 0.00 in Rain Light Rain
5:53 AM 61.0 °F 53.1 °F 75% 30.19 in 9.0 mi North 19.6 mph 29.9 mph 0.00 in   Overcast
6:53 AM 61.0 °F 53.1 °F 75% 30.21 in 9.0 mi North 17.3 mph 25.3 mph N/A   Overcast
7:53 AM 60.1 °F 53.1 °F 78% 30.24 in 8.0 mi North 15.0 mph - N/A   Overcast
8:53 AM 62.1 °F 54.0 °F 75% 30.25 in 8.0 mi North 16.1 mph - N/A   Overcast
9:53 AM 62.1 °F 54.0 °F 75% 30.27 in 8.0 mi North 15.0 mph - N/A   Overcast
10:53 AM 63.0 °F 54.0 °F 72% 30.27 in 8.0 mi North 15.0 mph - N/A   Overcast
11:53 AM 63.0 °F 54.0 °F 72% 30.25 in 9.0 mi North 11.5 mph - N/A   Overcast
12:53 PM 63.0 °F 54.0 °F 72% 30.22 in 9.0 mi North 11.5 mph - N/A   Overcast
1:53 PM 64.0 °F 54.0 °F 70% 30.19 in 9.0 mi North 12.7 mph - N/A   Overcast
2:53 PM 63.0 °F 54.0 °F 72% 30.18 in 8.0 mi North 11.5 mph - N/A   Overcast
3:53 PM 64.0 °F 54.0 °F 70% 30.17 in 8.0 mi North 8.1 mph - N/A   Overcast
4:35 PM 62.6 °F 53.6 °F 72% 30.16 in 8.0 mi North 10.4 mph - N/A   Overcast
4:53 PM 63.0 °F 54.0 °F 72% 30.16 in 8.0 mi NNE 9.2 mph - N/A   Overcast
5:53 PM 61.0 °F 54.0 °F 78% 30.14 in 8.0 mi NNE 8.1 mph - N/A   Overcast
6:53 PM 61.0 °F 54.0 °F 78% 30.14 in 9.0 mi North 3.5 mph - N/A   Overcast
7:53 PM 61.0 °F 54.0 °F 78% 30.14 in 9.0 mi NNW 3.5 mph - N/A   Overcast
8:13 PM 60.8 °F 53.6 °F 77% 30.14 in 9.0 mi Calm Calm - N/A   Overcast
8:53 PM 62.1 °F 54.0 °F 75% 30.14 in 9.0 mi Calm Calm - N/A   Overcast
9:35 PM 60.8 °F 53.6 °F 77% 30.13 in 9.0 mi NNE 8.1 mph - N/A   Overcast
9:53 PM 61.0 °F 55.0 °F 81% 30.12 in 9.0 mi NE 6.9 mph - N/A   Overcast
10:53 PM 60.1 °F 55.9 °F 86% 30.09 in 8.0 mi North 3.5 mph - N/A   Overcast
11:53 PM 61.0 °F 55.9 °F 83% 30.09 in 9.0 mi WNW 3.5 mph - N/A   Overcast